ATLAS 5 CENTAUR DEB, 43959

Orbit data source: Space-Track

ATLAS 5 CENTAUR DEB, 43959 is space debris in HEO originally from a launch on Wed, 17 Sep 2014 UTC launched from the Air Force Eastern Test Range (AFETR). Debris objects in space refer to the collection of defunct objects orbiting the Earth. Examples of debris include non-operational satellites, rocket bodies, and fragments generated from explosions, collisions, or faulty payload assembly.

Loading next visibility...
Identifier
43959, 2014-055N
Orbit
HEO
Country
Flag of USUS
Related business
Flag of USUnited Launch Alliance/Lockheed Martin (US)
Manufacturer
Unknown
Mission
Spacecraft
Bus & Motor
Unknown
Mass
Unknown
Launch date (UTC)
2014-09-17 (11 years ago)
Launch vehicle
Unknown
Launch site
Air Force Eastern Test Range (AFETR)
Object type
Payload
Rocket body
Debris
Shape & HBR
Unknown shape, 1.1 m
Radar Cross Section
Small (<0.1 m²)

Expand to show TLE details & history
Last TLE update: 20 hours ago

TLE from 20 hours ago
0 ATLAS 5 CENTAUR DEB
1 43959U 14055N   26066.18709385 -.00000089  00000-0  00000+0 0  9993
2 43959  19.8785 147.0213 5063386 156.1762 239.2164  1.81438271 49811
Epoch: 2026-03-07T04:29Z
TLE epoch observation values (Epoch: 2026-03-07T04:29:24.908Z)
Latitude
Longitude
-85.24391°
Altitude
32,978.405 km
Speed
2.494 km/s
True Right ascension
09h 48m 05s
True Declination
0° 00' 00"
Sunlit
Object was in daylight at epoch
Visualization orbit readout
Latitude
Unknown
Longitude
Unknown
Altitude
Unknown
Speed
Unknown
Apparent Right ascension
Unknown
Apparent Declination
Unknown
Sunlit
N/A
Visualization observer readout
Local Sidereal Time
04:49:07
Azimuth
Unknown
Elevation
Unknown
Doppler factor
Unknown
Orbital elements
Apogee altitude
36,398.111 km
Perigee altitude
7,640.612 km
Semi-major axis
28,397.499 km
Eccentricity
0.50634
Inclination
19.8785°
RAAN
147.0213°
Arg. of periapsis
156.1762°
True anomaly
203.79467°
Mean anomaly
239.2164°
Eccentric anomaly
220.40992°
Mean motion
0.45355 °/min
Orbital period
793.74 mins
BSTAR
0
Loading maneuver chart data...
Computing Atmospheric mass density...

Documentation

Showing up to 5 results
|